Weather Roundup
Issued by NWS Corpus Christi, TX

Home | Current Version | Previous Version | Text Only | Print | Product List | Glossary On
Versions: 1 2 3 4 5 6 7 8 9 10 11 12 13 14 15 16 17 18 19 20 21 22 23 24 25 26 27 28 29 30 31 32 33 34 35 36 37 38 39 40 41 42 43 44 45 46 47 48 49 50
000
ASUS44 KCRP 300710
HRRCRP

SOUTH TEXAS REGIONAL WEATHER ROUNDUP
NATIONAL WEATHER SERVICE CORPUS CHRISTI TX
100 AM CST FRI JAN 30 2015


TXZ229>244-300800-
...CORPUS CHRISTI AREA OBSERVATIONS...

CITY           SKY/WX    TMP DP  RH WIND       PRES   REMARKS
CORPUS CHRISTI PTCLDY    59  57  93 NE3       30.29S
NAS CORPUS CHR CLEAR     58  58 100 E3        30.28S
ROCKPORT       MOCLDY    59  58  96 CALM      30.29S
KINGSVILLE NAS FOG       57  57 100 CALM      30.28F VSB 1/4
ALICE          MOCLDY    58  56  93 N6        30.29S FOG
FALFURRIAS     CLOUDY    60  58  96 NE5       30.28F VSB 1/4
$$

...VICTORIA AREA OBSERVATIONS...

CITY           SKY/WX    TMP DP  RH WIND       PRES   REMARKS
VICTORIA       CLEAR     59  53  80 NE10      30.31S
BEEVILLE       CLOUDY    60  60 100 N5        30.31S
PLEASANTON     CLOUDY    61  39  43 NE13G21   30.35S
SAN ANTONIO    MOCLDY    58  36  43 NE18G24   30.36S
$$

...LAREDO AREA OBSERVATIONS...

CITY           SKY/WX    TMP DP  RH WIND       PRES   REMARKS
LAREDO         MOCLDY    63  59  87 E7        30.30S
COTULLA        CLOUDY    65  50  58 E16       30.32S
DEL RIO        CLOUDY    61  39  44 N7        30.34F
MCALLEN        PTCLDY    65  62  90 E8        30.27F
HEBBRONVILLE   RAIN      59  58  96 N3        30.30S
$$

...OTHER TEXAS OBSERVATIONS...

CITY           SKY/WX    TMP DP  RH WIND       PRES   REMARKS
BROWNSVILLE    CLEAR     61  60  97 NE6       30.26F
HOUSTON        MOCLDY    60  42  51 N9        30.32S
COL. STATION   PTCLDY    53  36  52 N10       30.38S
AUSTIN         MOCLDY    56  36  47 N17       30.39S
WACO           PTCLDY    47  34  60 N13       30.44S
FORT WORTH     CLOUDY    48  31  51 NE14      30.47F
WICHITA FALLS  MOCLDY    40  32  73 N8        30.50F
LUBBOCK        CLOUDY    41  29  62 E5        30.47F
EL PASO        LGT RAIN  48  37  65 E12       30.34F
$$

...MARINE OBSERVATIONS...

STATION/POSITION TIME  SKY/WX   TEMP    WIND        PRES    VSBY  WAVE   SWELL
                                AIR SEA DIR/SP/G                  HT/PER HT/PER
                 (UTC)          (F)     (DEG/KT/KT) (MB)    (MI)  (FT/S) (FT/S)
PORT ARANSAS     0700            62 62   30/  2/  3 1025.9S
BUOY 90 E PORT A 0700            64 66   10/  2/  4 1025.5F         1/ 5   2/ 5
BUOY 45 SE BAFFI 0700            69 70   90/  8/  8 1024.8F         2/ 5   2/ 5
BUOY 200 E PT IS 0700            71 72   80/  4/  8 1024.6F         1/ 4   2/ 4
BUOY 15 E GALVES 0700            60 59  290/  6/  8 1025.0F         1/ 5   2/ 5
$$


USA.gov is the U.S. government's official web portal to all federal, state and local government web resources and services.